Flag for Israel Weather past 2 weeks in Kfar Saba, Israel

Now
81 °F

Passing clouds.


Feels Like: 81 °F
Forecast: 67 / 89 °F
Wind: 9 mph from East

Location: Dov Airport


UV Index: 7 (High)

Visibility: N/A


Pressure: 29.68 "Hg

Humidity: 42%

Dew point: 55 °F

Location of Kfar SabaLocation

Historic Weather in Kfar Saba

°F

Kfar Saba temperature yesterday

Maximum temperature yesterday: 73 °F (at 3:50 PM)
Minimum temperature yesterday: 61 °F (at 5:50 AM)
Average temperature yesterday: 70 °F

Past Weeks' High & Low Weather Summary

 TemperatureHumidityPressure
High88 °F (Apr 19, 7:50 PM)88% (Apr 17, 5:50 AM)30.07 "Hg (Apr 17, 5:50 AM)
Low57 °F (Apr 11, 5:00 AM)21% (Apr 19, 4:50 AM)29.68 "Hg (Apr 24, 6:50 PM)
Average70 °F66%29.92 "Hg
* Reported Apr 9 7:50 PM — Apr 24 7:50 PM, Kfar Saba, Weather by CustomWeather, © 2014

Note: Actual official high and low records may vary slightly from our data, if they occured in-between our weather recording intervals... More about our weather records

Advertising

Historic Weather Conditions — Data for Previous 24 hours

 ConditionsComfort  
Time TempWeatherWind HumidityBarometerVisibility
7:50 PM
Apr 24
81 °FPassing clouds.9 mph42%29.68 "HgN/A
6:50 PM73 °FSunny.15 mph74%29.68 "Hg10 mi
5:50 PM75 °FSunny.15 mph69%29.71 "Hg10 mi
4:50 PM77 °FPassing clouds.13 mph69%29.71 "HgN/A
3:50 PM77 °FPassing clouds.6 mph74%29.71 "HgN/A
2:50 PM77 °FPassing clouds.7 mph74%29.77 "HgN/A
1:50 PM75 °FPassing clouds.8 mph74%29.77 "HgN/A
12:50 PM75 °FPassing clouds.7 mph69%29.77 "HgN/A
11:50 AM73 °FSunny.5 mph74%29.80 "Hg10 mi
10:50 AM72 °FPassing clouds.6 mph73%29.83 "HgN/A
9:50 AM73 °FPassing clouds.6 mph69%29.83 "HgN/A
8:50 AM72 °FSunny.3 mph69%29.83 "Hg10 mi
7:50 AM70 °FSunny.1 mph73%29.83 "Hg10 mi
6:50 AM64 °FClear.1 mph78%29.83 "Hg10 mi
5:50 AM64 °FClear.2 mph78%29.83 "Hg10 mi
10:50 PM
Apr 23
66 °FClear.7 mph78%29.92 "Hg10 mi
9:50 PM68 °FClear.3 mph78%29.92 "Hg10 mi
8:50 PM70 °FClear.10 mph78%29.92 "Hg10 mi
Weather by CustomWeather, © 2014

See weather overview